STARLINK-2419, 47830

Orbit data source: Space-Track

STARLINK-2419, 47830 is a payload satellite owned by SpaceX/Seattle (US) in LEO that was launched on Thu, 11 Mar 2021 UTC via an FALCON 9 launch vehicle from the Air Force Eastern Test Range (AFETR). Payload-class satellites include a variety of spacecraft equipped with specific instruments for various scientific and technological missions. These include communications satellites like Starlink; space stations such as the ISS; scientific satellites like the Hubble; Earth observation satellites from companies like Planet Labs, Umbra, and HawkEye 360; GPS; miniature CubeSats for education and research; and military/defense satellites.

Loading next visibility...
Identifier
47830, 2021-018AV
Orbit
LEO
Country
Flag of USUS
Related business
Manufacturer
SpaceX/Seattle
Mission
Operational Commercial Communications
Bus & Motor
STARLINK, Unknown motor
Mass
260 kg wet, ~248 kg dry
Launch date (UTC)
2021-03-11 (5 years ago)
Launch vehicle
FALCON 9
Launch site
Air Force Eastern Test Range (AFETR)
Object type
Payload
Rocket body
Debris
Shape & HBR
Box + 1 Pan, 10.1 m
Radar Cross Section
13.562 m², Large (>1 m²)

Expand to show TLE details & history
Last TLE update: 20 hours ago

TLE from 20 hours ago
0 STARLINK-2419
1 47830U 21018AV  26247.73834708  .00001034  00000-0  45077-4 0  9990
2 47830  53.1585 142.3892 0001161  96.8673 263.2460 15.31693409303974
Epoch: 2026-09-04T17:43Z
TLE epoch observation values (Epoch: 2026-09-04T17:43:13.187Z)
Latitude
-0.00007°
Longitude
-107.27366°
Altitude
471.753 km
Speed
7.631 km/s
True Right ascension
09h 29m 33s
True Declination
0° 00' 00"
Sunlit
Object was in daylight at epoch
Visualization orbit readout
Latitude
Unknown
Longitude
Unknown
Altitude
Unknown
Speed
Unknown
Apparent Right ascension
Unknown
Apparent Declination
Unknown
Sunlit
N/A
Visualization observer readout
Local Sidereal Time
06:06:10
Azimuth
Unknown
Elevation
Unknown
Doppler factor
Unknown
Orbital elements
Apogee altitude
471.812 km
Perigee altitude
470.221 km
Semi-major axis
6,849.153 km
Eccentricity
0.00012
Inclination
53.1585°
RAAN
142.3892°
Arg. of periapsis
96.8673°
True anomaly
263.23279°
Mean anomaly
263.246°
Eccentric anomaly
263.23939°
Mean motion
3.82902 °/min
Orbital period
94.02 mins
BSTAR
0.000045077
Loading maneuver chart data...
Computing Atmospheric mass density...
Loading historical data...
Loading historical data...
Loading historical data...
Loading historical data...
Loading historical data...
Loading historical data...
Loading historical data...

Documentation

Showing up to 5 results
|